logo
Προσγείωση
Short final
Εισιτήριο
Runway
Cabin view Aegean
Olympic Air A319
Slider
Οι νεότερες φωτογραφίες των μελών μας
SX-DNG SX-DNF SX-DNE Διασώθηκε και ακόμη πετά…. Αυτή προς Τενερίφη.  NUR SULTAN NAZARBAYEV FLYARYSTAN ALMATY AIRPORT  SX-DGX SX-DGV 
Το δικό σου φόρουμ... Οι «δικές» σου αεροπορικές εταιρείες...
✈ Στο μεγαλύτερο ελληνόφωνο αεροπορικό φόρουμ θα βρεις αυτό που ψάχνεις. Για aviation fans και aviation professionals. Για μικρούς και μεγάλους. Για όλους! Απ' ευθείας στο φόρουμ!
Οι νεότερες δημοσιεύσεις στο φόρουμ μας
✈ Θέλεις να μάθεις για τις ελληνικές εταιρείες; Για, αυτές που θα συναντήσεις σήμερα σε κάποιο ελληνικό ή ξένο αεροδρόμιο; Ή και για αυτές που πλέον ... δεν υπάρχουν άλλο; Εδώ είσαι σωστά! Απ' ευθείας στις αεροπορικές εταιρείες!
Τα «δικά» σου αεροσκάφη...
✈ Θέλεις να μάθεις ποιά αεροσκάφη χρησιμοποιούν ή χρησιμοποιούσαν οι ελληνικές εταιρείες; Να μάθεις πότε κατασκευάστηκαν και από πότε πετούν με τα χρώματα της εταιρείας; Εδώ είσαι σωστά! Απ' ευθείας στο ελληνικό κατάλογο αεροσκαφών!
Τα «δικά» σου αεροδρόμια...
✈ Θέλεις να ενημερωθείς για τα ελληνικά αεροδρόμια; Να διαβάσεις τα τελευταία μετεωρολογικά μηνύματα METAR και TAF; Να μάθεις πόσοι επιβάτες χρησιμοποίησαν τα τελευταία 20 χρόνια τα αεροδρόμια μας; Εδώ είσαι σωστά! Απ' ευθείας στο ελληνικά αεροδρόμια!
Π.χ. το τελευταίο METAR του «Ελ. Βενιζέλος»:
METAR: LGAV 120220Z 28001KT 8000 FEW012 SCT018 17/15 Q1015 NOSIG